Location: Glendale
(37.4556°N, 88.6714°W)
Time: 08:44:59
(UTC+00:00)

Cosmos 1140 Rocket - Pass Details

Date: 08 December 2019
Orbit: 744 x 768 km, 74.1° (Epoch: 26 January)

Event Time Altitude Azimuth Distance (km) Brightness Sun altitude
Exits shadow 11:12:59 19° 342° (NNW) 1,742 5.0 -20.0°
Maximum altitude 11:16:45 88° 257° (WSW) 767 3.4 -19.2°
Drops below altitude 10° 11:21:58 10° 164° (SSE) 2,292 6.4 -18.2°
Sets 11:24:20 0° 164° (SSE) 3,216 7.2 -17.8°
